World > North America > United States > Iowa

Waukee, Iowa Regional Weather

Lat: 41.61N, Lon: 93.86W
Wx Zone: IAZ059Web Search

If you are on your PC, you can easily pass this page to your phone by scanning the QR Code near the bottom with your camera.

Feedback
Waukee Weather Map
UTC Time: 3/3/2021, 18:00
Your Time:

Waukee, IA Regional Weather

Expires:202103031800;;416308
ASUS43 KDMX 031706
RWRIA 

WEATHER ROUNDUP FOR IOWA
NATIONAL WEATHER SERVICE DES MOINES IA
1100 AM CST WED MAR 03 2021

NOTE: "FAIR" INDICATES FEW OR NO CLOUDS BELOW 12,000 FEET WITH NO
SIGNIFICANT WEATHER AND/OR OBSTRUCTIONS TO VISIBILITY.

* - THESE STATIONS ARE NOT NWS STATIONS...THUS NOT UNDER NWS
QUALITY CONTROL.  THEY ALSO DO NOT REPORT WEATHER SUCH 
AS PRECIPITATION OR FOG.  


IAZ047>049-059>061-072>074-084-031800-
   CENTRAL IOWA
  
CITY           SKY/WX    TMP DP  RH WIND       PRES   REMARKS
AMES           SUNNY     52  34  50 CALM      30.04S                  
ANKENY *       SUNNY     52  34  50 CALM      30.05S                  
BOONE *        SUNNY     50  39  66 NE3       30.03R                  
CHARITON *     SUNNY     52  36  54 VRB6      30.03S                  
DES MOINES     MOSUNNY   52  34  50 CALM      30.04S                  
GRINNELL*      SUNNY     45  34  65 NW5       30.05S                  
KNOXVILLE *    SUNNY     52  36  54 CALM      30.04S                  
MARSHALLTOWN   SUNNY     44  37  76 VRB3      30.04                   
NEWTON *       SUNNY     48  37  66 CALM      30.03S                  
PELLA *        SUNNY     53  35  51 CALM      30.06S                  
PERRY *        FAIR      49  37  62 CALM      30.04R                  
$$
 

SKY/WX - Weather  TMP - Temperature  DP - Dew Point  RH - Relative Humidity
WIND - Wind Direction/Speed PRES - Barometric Pressure VSB - Visibility
WCI - Wind Chill Index E13G22 Wind - East Wind 13 mph/Gusts of 22 mph